Wilmington, NC

3:49 AM EDT on May 01, 2017 (GMT -0400)
Wilmington International

Weather History for KILM - January, 2012

Change the Weather History Date:

Tuesday, January 31, 2012

  Actual Average Record
Temperature  
Mean Temperature 49 °F 47 °F  
Max Temperature 66 °F 58 °F 82 °F (1975)
Min Temperature 32 °F 36 °F 17 °F (1934)
Degree Days  
Heating Degree Days 16 18  
Month to date heating degree days 455 585  
Since 1 July heating degree days 1162 1475  
Cooling Degree Days 0 0  
Month to date cooling degree days 0 2  
Year to date cooling degree days 0 2  
Moisture  
Dew Point 33 °F    
Average Humidity 58    
Maximum Humidity 96    
Minimum Humidity 20    
Precipitation  
Precipitation 0.00 in 0.13 in 1.41 in (1878)
Month to date precipitation 1.77 3.76  
Year to date precipitation 1.77 3.76  
Snow  
Snow 0.00 in 0.00 in 2.50 in (1965)
Month to date snowfall T 0.4  
Since 1 July snowfall T 1.2  
Snow Depth 0.00 in    
Sea Level Pressure  
Sea Level Pressure 30.38 in    
Wind  
Wind Speed 5 mph (SW)    
Max Wind Speed 16 mph    
Max Gust Speed 20 mph    
Visibility 10 miles    
Events      
T = Trace of Precipitation, MM = Missing Value Source: NWS Daily Summary

Daily Weather History Graph

Daily Weather History Graph

Search for Another Location

Airport or City:

Trip Planner

Search our weather history database for the weather conditions in past years. The results will help you decide how hot, cold, wet, or windy it might be!

Date:

Astronomy

Jan. 31, 2012 Rise Set
Actual Time 7:10 AM EST 5:40 PM EST
Civil Twilight 6:43 AM EST 6:06 PM EST
Nautical Twilight 6:13 AM EST 6:36 PM EST
Astronomical Twilight 5:44 AM EST 7:06 PM EST
Moon 11:31 AM EST (1/31) 12:55 AM EST (1/31)
Length of Visible Light 11h 22m
Length of Day
10h 30m
First Quarter, 55% of the Moon is Illuminated
Jan 31
First Quarter
Feb 7
Full
Feb 14
Last Quarter
Feb 21
New
Feb 29
First Quarter

Hourly Weather History & Observations

Time (EST) Temp. Dew Point Humidity Pressure Visibility Wind Dir Wind Speed Gust Speed Precip Events Conditions
12:53 AM 37.9 °F 34.0 °F 86% 30.42 in 10.0 mi Calm Calm - N/A   Clear
1:53 AM 37.0 °F 33.1 °F 86% 30.41 in 10.0 mi Calm Calm - N/A   Clear
2:53 AM 36.0 °F 33.1 °F 89% 30.41 in 10.0 mi Calm Calm - N/A   Clear
3:53 AM 35.1 °F 33.1 °F 92% 30.40 in 6.0 mi Calm Calm - N/A   Clear
4:53 AM 34.0 °F 32.0 °F 92% 30.40 in 7.0 mi Calm Calm - N/A   Clear
5:53 AM 34.0 °F 32.0 °F 92% 30.41 in 7.0 mi Calm Calm - N/A   Clear
6:53 AM 35.1 °F 30.9 °F 85% 30.42 in 10.0 mi Calm Calm - N/A   Clear
7:53 AM 37.0 °F 32.0 °F 82% 30.44 in 10.0 mi Calm Calm - N/A   Clear
8:53 AM 50.0 °F 39.9 °F 68% 30.45 in 10.0 mi WSW 4.6 mph - N/A   Clear
9:53 AM 55.0 °F 37.9 °F 53% 30.46 in 10.0 mi SW 5.8 mph - N/A   Clear
10:53 AM 61.0 °F 34.0 °F 36% 30.45 in 10.0 mi WSW 5.8 mph - N/A   Clear
11:53 AM 64.0 °F 30.0 °F 28% 30.43 in 10.0 mi WSW 10.4 mph - N/A   Clear
12:53 PM 64.9 °F 27.0 °F 24% 30.39 in 10.0 mi WSW 10.4 mph - N/A   Clear
1:53 PM 64.9 °F 24.1 °F 21% 30.36 in 10.0 mi WSW 13.8 mph - N/A   Clear
2:53 PM 66.0 °F 25.0 °F 21% 30.33 in 10.0 mi SW 13.8 mph - N/A   Clear
3:53 PM 64.0 °F 27.0 °F 25% 30.33 in 10.0 mi SSW 11.5 mph - N/A   Clear
4:53 PM 61.0 °F 27.0 °F 27% 30.33 in 10.0 mi SSW 10.4 mph - N/A   Clear
5:53 PM 57.0 °F 28.9 °F 34% 30.33 in 10.0 mi SSW 6.9 mph - N/A   Clear
6:53 PM 51.1 °F 32.0 °F 48% 30.34 in 10.0 mi South 5.8 mph - N/A   Clear
7:53 PM 51.1 °F 37.0 °F 59% 30.34 in 10.0 mi South 4.6 mph - N/A   Clear
8:53 PM 46.9 °F 37.0 °F 68% 30.35 in 10.0 mi Calm Calm - N/A   Clear
9:53 PM 48.0 °F 39.9 °F 74% 30.34 in 10.0 mi SW 3.5 mph - N/A   Clear
10:53 PM 48.9 °F 44.1 °F 83% 30.34 in 10.0 mi SSW 5.8 mph - N/A   Clear
11:53 PM 50.0 °F 45.0 °F 83% 30.32 in 10.0 mi SSW 5.8 mph - N/A   Clear